TANSUO 1 (TS 1)

Last updated on Thu Jun 22 2017 00:17:33 GMT+0000 (Coordinated Universal Time)

1 28220U 04012A 17172.50994171 .00000075 00000-0 11041-4 0 9998 2 28220 97.6998 128.5419 0011375 119.2073 241.0290 14.99214656716946
UTC large
Height (km)
Speed (km/s)
/
Latitude / Longitude
Inclination (degrees)
Orbital Period (minutes)
Azimuth
Elevation
Range (km)
Doppler Factor

Next 0 passes for location: London (51.5072 / 0.1276)

Sorry there are no passes over London.